Aeroporto :
LOGIN :

Iscrizione | Disclaimer

   EN    FR    IT 

 










Sommario :    VFR   VFR Marginale   IFR   IFR Intensivo   IFR Molto Intensivo
Visibilità : 
Base nubi : 
>= 8 km
>= 3000ft
5 / 8 km
1000 / 3000 ft
1500m / 5 km
500 / 1000 ft
800 / 1500m
200 / 500 ft
< 800m
< 200 ft
Simboli :   Temporali  Nebbia  Neve Forte  Precipitazioni Forti  Vento > 20 kt
SIGMETs :   Varie  Temporali  Ghiacco  Turbolenza  Onda orograficha  Ceneri Vulcaniche







- Altitudine del aeroporto : 117 ft
- Codice IATA : NWI
- Carte del aeroporto


EGSH - Norwich

ULTIMO METAR :
  • 261920Z 03011KT 9999 BKN009 14/12 Q1031 NOSIG

METARs OBSOLETI :
  • 261850Z 02010KT 350V050 9999 BKN009 14/12 Q1031 NOSIG
  • 261750Z 02009KT 350V060 9999 BKN010 14/12 Q1030 TEMPO BKN009
  • 261720Z 03009KT 360V060 9999 BKN010 14/12 Q1030 TEMPO BKN009
  • 261650Z 02010KT 350V050 9999 BKN010 14/12 Q1030 TEMPO BKN009

TAF TAF EGSH
Valido dal 26 a 18 ore il 27 a 00 ore UTC


261701Z 2618/2624 03012KT 9999 BKN010
PROB40
TEMPO 2618/2624 BKN008
ATIS : +44 1603 420 640
Nessun NOTAM noto per questo aeroporto.



MetMap, La meteo Aeronautica in un colpo d'occhio ! - Copyright ORBIFLY Dicembre 2007 - Disclaimer

ORBIFLY MET'MAP TEAM :

Programmazione e sviluppo : Alexandra Zaïnal
Concezione e sviluppo : Baudouin d'Aumeries
Co-Programmazione e sviluppo : Marc-Olivier Méhu
Supporto tecnico e logistico : Manuel Goepfert
Aiuto per la traduzione : Arnaldo La Scala

Contatto : metmap@orbifly.com




FONTI E CREDITI :

   NOAA